FLOCK 4Q 4

导读 | 星芒AI

FLOCK 4Q 4 是由 Planet Labs 运营的 Dove 卫星之一,属于其 Flock 4Q 系列。该卫星是一颗小型光学遥感卫星,主要用于地球观测,提供高分辨率的多光谱影像。它运行在低地球轨道,与其他 Dove 卫星协同工作,实现对地表的高频次成像,广泛应用于环境监测、农业管理、灾害评估等领域。Flock 4Q 4 卫星于 2017 年发射,是 Planet 全球卫星星座的重要组成部分。

基本信息
目录编号:
58327
目录名称:
FLOCK 4Q 4
国际标识:
2023-174BZ
轨道中心:
EARTH
卫星名称:
FLOCK 4Q 4
卫星全名:
--
卫星状态:
在轨 (已飞行711 天)
发射日期:
2023-11-11 UTC
国别 :
美国 (US)
星等 :
--
轨道信息
数据来源 国际轨道数据
星历时间: 2025-10-22T12:07:32+0800
10小时前
查看轨道信息
半长轴: 6832.466km
偏心率: 0.0006346
轨道倾角: 97.405°
近地点辐角 300.865°
升交点赤经 14.349°
平近点角 59.197°
近地点: 449.995km
远地点: 458.667km
周期: 93.675分钟
每日圈数: 15.372219
详细信息
使用方式:
暂无
2D轨道图
3D轨道图
轨道高度分析图
轨道倾角分析图
轨道综合分析图
查看轨道综合分析图